Location: Recife
(8.0585°S, 34.8848°W)
Time: 07:40:21
(UTC-03:00)

Vanguard 1 - Pass Details

Date: 14 April 2026
Orbit: 654 x 3817 km, 34.2° (Epoch: 13 May)

Event Time Altitude Azimuth Distance (km) Brightness Sun altitude
Rises 20:45:42 0° 252° (WSW) 6,280 14.7 -51.9°
Reaches altitude 10° 20:49:35 10° 258° (WSW) 5,629 14.3 -52.9°
Maximum altitude 21:07:03 45° 324° (NW) 4,454 13.2 -57.2°
Enters shadow 21:15:34 36° 3° (N) 5,046 13.4 -59.3°
Drops below altitude 10° 21:28:42 10° 31° (NNE) 6,729 - -62.5°
Exits shadow 21:33:23 - 37° (NE) 7,420 14.4 -63.7°
Sets 21:34:07 0° 38° (NE) 7,530 14.4 -63.9°
